Time,TemperatureF,DewpointF,PressureIn,WindDirection,WindDirectionDegrees,WindSpeedMPH,WindSpeedGustMPH,Humidity,HourlyPrecipIn,Conditions,Clouds,dailyrainin,SolarRadiationWatts/m^2,SoftwareType,DateUTC
2013-07-28 00:12:00,55.0,48.0,-100.00,SE,133,7.0,13.0,76,0.00,,,0.00,0.000000,,2013-07-28 06:12:00,
2013-07-28 00:22:00,55.0,48.0,-100.00,SE,133,7.0,13.0,76,0.00,,,0.00,0.000000,,2013-07-28 06:22:00,
2013-07-28 00:32:00,55.0,48.0,-100.00,SE,133,7.0,13.0,76,0.00,,,0.00,0.000000,,2013-07-28 06:32:00,
2013-07-28 00:43:00,55.0,48.0,-100.00,SE,133,7.0,13.0,76,0.00,,,0.00,0.000000,,2013-07-28 06:43:00,
2013-07-28 01:12:00,54.0,49.0,-100.00,ESE,103,3.0,13.0,84,0.00,,,0.00,0.000000,,2013-07-28 07:12:00,
2013-07-28 01:22:00,54.0,49.0,-100.00,ESE,103,3.0,13.0,84,0.00,,,0.00,0.000000,,2013-07-28 07:22:00,
2013-07-28 01:32:00,54.0,49.0,-100.00,ESE,103,3.0,13.0,84,0.00,,,0.00,0.000000,,2013-07-28 07:32:00,
2013-07-28 01:43:00,54.0,49.0,-100.00,ESE,103,3.0,13.0,84,0.00,,,0.00,0.000000,,2013-07-28 07:43:00,
2013-07-28 02:12:00,51.0,50.0,-100.00,SE,145,11.0,15.0,95,0.05,,,0.05,0.000000,,2013-07-28 08:12:00,
2013-07-28 02:22:00,51.0,50.0,-100.00,SE,145,11.0,15.0,95,0.05,,,0.05,0.000000,,2013-07-28 08:22:00,
2013-07-28 02:33:00,51.0,50.0,-100.00,SE,145,11.0,15.0,95,0.05,,,0.05,0.000000,,2013-07-28 08:33:00,
2013-07-28 02:42:00,51.0,50.0,-100.00,SE,145,11.0,15.0,95,0.05,,,0.05,0.000000,,2013-07-28 08:42:00,
2013-07-28 03:12:00,51.0,50.0,-100.00,SE,135,9.0,14.0,97,0.06,,,-99.99,0.000000,,2013-07-28 09:12:00,
2013-07-28 03:22:00,51.0,50.0,-100.00,SE,135,9.0,14.0,97,0.06,,,-99.99,0.000000,,2013-07-28 09:22:00,
2013-07-28 03:32:00,51.0,50.0,-100.00,SE,135,9.0,14.0,97,0.06,,,-99.99,0.000000,,2013-07-28 09:32:00,
2013-07-28 03:43:00,51.0,50.0,-100.00,SE,135,9.0,14.0,97,0.06,,,-99.99,0.000000,,2013-07-28 09:43:00,
2013-07-28 04:12:00,51.0,50.0,-100.00,SE,142,10.0,13.0,96,0.01,,,0.12,0.000000,,2013-07-28 10:12:00,
2013-07-28 04:22:00,51.0,50.0,-100.00,SE,142,10.0,13.0,96,0.01,,,0.12,0.000000,,2013-07-28 10:22:00,
2013-07-28 04:32:00,51.0,50.0,-100.00,SE,142,10.0,13.0,96,0.01,,,0.12,0.000000,,2013-07-28 10:32:00,
2013-07-28 04:42:00,51.0,50.0,-100.00,SE,142,10.0,13.0,96,0.01,,,0.12,0.000000,,2013-07-28 10:42:00,
2013-07-28 05:12:00,50.0,49.0,-100.00,SSE,161,9.0,15.0,98,0.05,,,0.17,0.000000,,2013-07-28 11:12:00,
2013-07-28 05:22:00,50.0,49.0,-100.00,SSE,161,9.0,15.0,98,0.05,,,0.17,0.000000,,2013-07-28 11:22:00,
2013-07-28 05:33:00,50.0,49.0,-100.00,SSE,161,9.0,15.0,98,0.05,,,0.17,0.000000,,2013-07-28 11:33:00,
2013-07-28 05:43:00,50.0,49.0,-100.00,SSE,161,9.0,15.0,98,0.05,,,0.17,0.000000,,2013-07-28 11:43:00,
2013-07-28 06:12:00,50.0,50.0,-100.00,SE,146,10.0,12.0,100,0.06,,,0.23,0.000000,,2013-07-28 12:12:00,
2013-07-28 06:22:00,50.0,50.0,-100.00,SE,146,10.0,12.0,100,0.06,,,0.23,0.000000,,2013-07-28 12:22:00,
2013-07-28 06:33:00,50.0,50.0,-100.00,SE,146,10.0,12.0,100,0.06,,,0.23,0.000000,,2013-07-28 12:33:00,
2013-07-28 06:43:00,50.0,50.0,-100.00,SE,146,10.0,12.0,100,0.06,,,0.23,0.000000,,2013-07-28 12:43:00,
2013-07-28 07:12:00,50.0,50.0,-100.00,SE,139,10.0,13.0,100,0.00,,,0.23,8.000000,,2013-07-28 13:12:00,
2013-07-28 07:22:00,50.0,50.0,-100.00,SE,139,10.0,13.0,100,0.00,,,0.23,8.000000,,2013-07-28 13:22:00,
2013-07-28 07:32:00,50.0,50.0,-100.00,SE,139,10.0,13.0,100,0.00,,,0.23,8.000000,,2013-07-28 13:32:00,
2013-07-28 07:43:00,50.0,50.0,-100.00,SE,139,10.0,13.0,100,0.00,,,0.23,8.000000,,2013-07-28 13:43:00,
2013-07-28 08:12:00,51.0,51.0,-100.00,SSE,147,8.0,13.0,99,0.01,,,0.24,59.000000,,2013-07-28 14:12:00,
2013-07-28 08:23:00,51.0,51.0,-100.00,SSE,147,8.0,13.0,99,0.01,,,0.24,59.000000,,2013-07-28 14:23:00,
2013-07-28 08:33:00,51.0,51.0,-100.00,SSE,147,8.0,13.0,99,0.01,,,0.24,59.000000,,2013-07-28 14:33:00,
2013-07-28 08:43:00,51.0,51.0,-100.00,SSE,147,8.0,13.0,99,0.01,,,0.24,59.000000,,2013-07-28 14:43:00,
2013-07-28 09:13:00,52.0,51.0,-100.00,SE,142,4.0,10.0,96,0.01,,,0.25,135.000000,,2013-07-28 15:13:00,
2013-07-28 09:22:00,52.0,51.0,-100.00,SE,142,4.0,10.0,96,0.01,,,0.25,135.000000,,2013-07-28 15:22:00,
2013-07-28 09:32:00,52.0,51.0,-100.00,SE,142,4.0,10.0,96,0.01,,,0.25,135.000000,,2013-07-28 15:32:00,
2013-07-28 09:43:00,52.0,51.0,-100.00,SE,142,4.0,10.0,96,0.01,,,0.25,135.000000,,2013-07-28 15:43:00,
2013-07-28 10:12:00,53.0,53.0,-100.00,SE,142,6.0,9.0,99,0.03,,,0.28,111.000000,,2013-07-28 16:12:00,
2013-07-28 10:22:00,53.0,53.0,-100.00,SE,142,6.0,9.0,99,0.03,,,0.28,111.000000,,2013-07-28 16:22:00,
2013-07-28 10:33:00,53.0,53.0,-100.00,SE,142,6.0,9.0,99,0.03,,,0.28,111.000000,,2013-07-28 16:33:00,
2013-07-28 10:43:00,53.0,53.0,-100.00,SE,142,6.0,9.0,99,0.03,,,0.28,111.000000,,2013-07-28 16:43:00,
2013-07-28 11:12:00,53.0,52.0,-100.00,SE,142,8.0,10.0,98,0.04,,,0.32,152.000000,,2013-07-28 17:12:00,
2013-07-28 11:22:00,53.0,52.0,-100.00,SE,142,8.0,10.0,98,0.04,,,0.32,152.000000,,2013-07-28 17:22:00,
2013-07-28 11:32:00,53.0,52.0,-100.00,SE,142,8.0,10.0,98,0.04,,,0.32,152.000000,,2013-07-28 17:32:00,
2013-07-28 11:43:00,53.0,52.0,-100.00,SE,142,8.0,10.0,98,0.04,,,0.32,152.000000,,2013-07-28 17:43:00,
2013-07-28 12:12:00,57.0,54.0,-100.00,SE,131,8.0,12.0,89,0.00,,,0.32,557.000000,,2013-07-28 18:12:00,
2013-07-28 12:22:00,57.0,54.0,-100.00,SE,131,8.0,12.0,89,0.00,,,0.32,557.000000,,2013-07-28 18:22:00,
2013-07-28 12:33:00,57.0,54.0,-100.00,SE,131,8.0,12.0,89,0.00,,,0.32,557.000000,,2013-07-28 18:33:00,
2013-07-28 12:43:00,57.0,54.0,-100.00,SE,131,8.0,12.0,89,0.00,,,0.32,557.000000,,2013-07-28 18:43:00,
2013-07-28 13:12:00,55.0,54.0,-100.00,North,7,6.0,10.0,95,0.07,,,0.39,206.000000,,2013-07-28 19:12:00,
2013-07-28 13:22:00,55.0,54.0,-100.00,North,7,6.0,10.0,95,0.07,,,0.39,206.000000,,2013-07-28 19:22:00,
2013-07-28 13:33:00,55.0,54.0,-100.00,North,7,6.0,10.0,95,0.07,,,0.39,206.000000,,2013-07-28 19:33:00,
2013-07-28 13:43:00,55.0,54.0,-100.00,North,7,6.0,10.0,95,0.07,,,0.39,206.000000,,2013-07-28 19:43:00,
2013-07-28 14:12:00,56.0,54.0,-100.00,West,279,4.0,10.0,93,0.07,,,0.46,237.000000,,2013-07-28 20:12:00,
2013-07-28 14:23:00,56.0,54.0,-100.00,West,279,4.0,10.0,93,0.07,,,0.46,237.000000,,2013-07-28 20:23:00,
2013-07-28 14:33:00,56.0,54.0,-100.00,West,279,4.0,10.0,93,0.07,,,0.46,237.000000,,2013-07-28 20:33:00,
2013-07-28 14:43:00,56.0,54.0,-100.00,West,279,4.0,10.0,93,0.07,,,0.46,237.000000,,2013-07-28 20:43:00,
2013-07-28 15:12:00,61.0,57.0,-100.00,South,177,4.0,9.0,87,0.04,,,0.50,494.000000,,2013-07-28 21:12:00,
2013-07-28 15:22:00,61.0,57.0,-100.00,South,177,4.0,9.0,87,0.04,,,0.50,494.000000,,2013-07-28 21:22:00,
2013-07-28 15:33:00,61.0,57.0,-100.00,South,177,4.0,9.0,87,0.04,,,0.50,494.000000,,2013-07-28 21:33:00,
2013-07-28 15:44:00,61.0,57.0,-100.00,South,177,4.0,9.0,87,0.04,,,0.50,494.000000,,2013-07-28 21:44:00,
2013-07-28 16:12:00,65.0,57.0,-100.00,ESE,109,5.0,10.0,75,0.00,,,0.50,818.000000,,2013-07-28 22:12:00,
2013-07-28 16:22:00,65.0,57.0,-100.00,ESE,109,5.0,10.0,75,0.00,,,0.50,818.000000,,2013-07-28 22:22:00,
2013-07-28 17:12:00,63.0,54.0,-100.00,SE,137,11.0,15.0,72,0.00,,,0.50,618.000000,,2013-07-28 23:12:00,
2013-07-28 17:22:00,63.0,54.0,-100.00,SE,137,11.0,15.0,72,0.00,,,0.50,618.000000,,2013-07-28 23:22:00,
2013-07-28 17:32:00,63.0,54.0,-100.00,SE,137,11.0,15.0,72,0.00,,,0.50,618.000000,,2013-07-28 23:32:00,
2013-07-28 17:43:00,63.0,54.0,-100.00,SE,137,11.0,15.0,72,0.00,,,0.50,618.000000,,2013-07-28 23:43:00,
2013-07-28 18:12:00,63.0,48.0,-100.00,SE,144,10.0,18.0,58,0.00,,,0.50,630.000000,,2013-07-29 00:12:00,
2013-07-28 18:22:00,63.0,48.0,-100.00,SE,144,10.0,18.0,58,0.00,,,0.50,630.000000,,2013-07-29 00:22:00,
2013-07-28 18:32:00,63.0,48.0,-100.00,SE,144,10.0,18.0,58,0.00,,,0.50,630.000000,,2013-07-29 00:32:00,
2013-07-28 18:43:00,63.0,48.0,-100.00,SE,144,10.0,18.0,58,0.00,,,0.50,630.000000,,2013-07-29 00:43:00,
2013-07-28 19:34:00,62.0,48.0,-100.00,SSE,151,10.0,12.0,60,0.00,,,0.50,308.000000,,2013-07-29 01:34:00,
2013-07-28 20:14:00,59.0,47.0,-100.00,SSE,166,8.0,13.0,64,0.00,,,0.50,60.000000,,2013-07-29 02:14:00,
2013-07-28 20:24:00,59.0,47.0,-100.00,SSE,166,8.0,13.0,64,0.00,,,0.50,60.000000,,2013-07-29 02:24:00,
2013-07-28 20:36:00,59.0,47.0,-100.00,SSE,166,8.0,13.0,64,0.00,,,0.50,60.000000,,2013-07-29 02:36:00,
2013-07-28 20:45:00,59.0,47.0,-100.00,SSE,166,8.0,13.0,64,0.00,,,0.50,60.000000,,2013-07-29 02:45:00,
2013-07-28 21:24:00,54.0,50.0,-100.00,WNW,297,11.0,20.0,86,0.03,,,0.53,3.000000,,2013-07-29 03:24:00,
2013-07-28 21:36:00,54.0,50.0,-100.00,WNW,297,11.0,20.0,86,0.03,,,0.53,3.000000,,2013-07-29 03:36:00,
2013-07-28 22:12:00,52.0,49.0,-100.00,SE,133,11.0,15.0,89,0.01,,,0.54,0.000000,,2013-07-29 04:12:00,
2013-07-28 22:22:00,52.0,49.0,-100.00,SE,133,11.0,15.0,89,0.01,,,0.54,0.000000,,2013-07-29 04:22:00,
2013-07-28 22:32:00,52.0,49.0,-100.00,SE,133,11.0,15.0,89,0.01,,,0.54,0.000000,,2013-07-29 04:32:00,
2013-07-28 22:43:00,52.0,49.0,-100.00,SE,133,11.0,15.0,89,0.01,,,0.54,0.000000,,2013-07-29 04:43:00,
2013-07-28 23:12:00,51.0,48.0,-100.00,SSE,150,12.0,21.0,91,0.00,,,0.54,0.000000,,2013-07-29 05:12:00,
2013-07-28 23:22:00,51.0,48.0,-100.00,SSE,150,12.0,21.0,91,0.00,,,0.54,0.000000,,2013-07-29 05:22:00,
2013-07-28 23:32:00,51.0,48.0,-100.00,SSE,150,12.0,21.0,91,0.00,,,0.54,0.000000,,2013-07-29 05:32:00,
2013-07-28 23:42:00,51.0,48.0,-100.00,SSE,150,12.0,21.0,91,0.00,,,0.54,0.000000,,2013-07-29 05:42:00,